TimeCST,TemperatureF,Dew PointF,Humidity,Sea Level PressureIn,VisibilityMPH,Wind Direction,Wind SpeedMPH,Gust SpeedMPH,PrecipitationIn,Events,Conditions,WindDirDegrees,DateUTC
2:53 AM,46.0,37.9,73,30.10,10.0,NE,4.6,-,N/A,,Overcast,40,2012-12-06 08:53:00
3:53 AM,44.1,37.9,79,30.08,10.0,NE,3.5,-,N/A,,Overcast,40,2012-12-06 09:53:00
4:53 AM,43.0,37.0,80,30.06,10.0,NNE,4.6,-,N/A,,Overcast,30,2012-12-06 10:53:00
5:53 AM,45.0,37.9,76,30.07,10.0,NE,3.5,-,N/A,,Overcast,40,2012-12-06 11:53:00
6:53 AM,45.0,39.0,80,30.08,10.0,Calm,Calm,-,N/A,,Overcast,0,2012-12-06 12:53:00
7:53 AM,46.0,37.9,73,30.08,10.0,NNE,3.5,-,N/A,,Overcast,30,2012-12-06 13:53:00
8:53 AM,46.9,39.9,77,30.07,10.0,ENE,4.6,-,N/A,,Overcast,70,2012-12-06 14:53:00
9:53 AM,50.0,39.9,68,30.07,10.0,East,3.5,-,N/A,,Overcast,100,2012-12-06 15:53:00
10:53 AM,51.1,39.9,66,30.06,10.0,Calm,Calm,-,N/A,,Overcast,0,2012-12-06 16:53:00
11:53 AM,53.1,41.0,64,30.01,10.0,Calm,Calm,-,N/A,,Overcast,0,2012-12-06 17:53:00
12:53 PM,54.0,44.1,69,30.00,10.0,SW,3.5,-,N/A,,Overcast,220,2012-12-06 18:53:00
1:34 PM,55.4,44.6,67,29.98,10.0,SSW,4.6,-,N/A,,Overcast,210,2012-12-06 19:34:00
1:53 PM,55.0,44.1,67,29.98,10.0,Calm,Calm,-,N/A,,Overcast,0,2012-12-06 19:53:00
2:26 PM,55.4,46.4,72,29.96,10.0,ESE,4.6,-,N/A,,Overcast,120,2012-12-06 20:26:00
2:53 PM,55.9,46.0,69,29.96,10.0,Variable,3.5,-,N/A,,Overcast,0,2012-12-06 20:53:00
3:53 PM,55.9,46.9,72,29.96,10.0,ESE,3.5,-,N/A,,Overcast,120,2012-12-06 21:53:00
4:53 PM,55.0,48.0,77,29.95,9.0,ESE,4.6,-,N/A,,Overcast,110,2012-12-06 22:53:00
5:18 PM,55.4,48.2,77,29.95,9.0,Calm,Calm,-,N/A,,Overcast,0,2012-12-06 23:18:00
5:53 PM,55.0,48.9,80,29.95,10.0,Calm,Calm,-,N/A,,Overcast,0,2012-12-06 23:53:00
6:53 PM,55.0,52.0,89,29.95,7.0,SSE,8.1,-,N/A,,Overcast,150,2012-12-07 00:53:00
7:05 PM,55.4,51.8,88,29.95,6.0,SSE,10.4,-,N/A,,Overcast,150,2012-12-07 01:05:00
7:23 PM,55.4,51.8,88,29.95,6.0,SSE,8.1,-,N/A,,Overcast,150,2012-12-07 01:23:00
7:53 PM,55.0,53.1,93,29.95,4.0,SSE,8.1,-,N/A,,Overcast,150,2012-12-07 01:53:00
8:53 PM,55.0,53.1,93,29.96,6.0,Calm,Calm,-,N/A,,Overcast,0,2012-12-07 02:53:00
9:53 PM,55.0,53.1,93,29.95,4.0,Calm,Calm,-,N/A,,Overcast,0,2012-12-07 03:53:00
10:41 PM,55.4,53.6,94,29.93,2.0,SSE,5.8,-,N/A,,Overcast,150,2012-12-07 04:41:00
10:48 PM,55.4,53.6,94,29.93,1.0,SSE,4.6,-,N/A,,Overcast,150,2012-12-07 04:48:00
10:53 PM,55.0,54.0,96,29.94,0.5,SSE,4.6,-,N/A,Fog,Fog,150,2012-12-07 04:53:00
11:09 PM,55.4,53.6,94,29.93,0.2,SSE,3.5,-,N/A,Fog,Fog,150,2012-12-07 05:09:00
11:53 PM,55.0,54.0,96,29.93,0.2,Calm,Calm,-,N/A,Fog,Fog,0,2012-12-07 05:53:00